Date String (YYYY-MM-DD hh:mm:ss) UTC,Instrument flags,Ambient pressure (hPa),Sample flow (lpm),Bypass flow (lpm),Sample temperature (°C),Ambient temperature (°C),ASC tube jacket temperature (°C),LED temperature (°C),Box temperature (°C),Sample RH (%),Span deviation,Mass concentration (μg/m³),Mass concentration (μg/m³),Mass concentration (μg/m³)
DateTimeUTC,F1_M11,P_M11,Q1_M11,Q2_M11,T1_M11,T2_M11,T3_M11,T4_M11,T5_M11,U1_M11,ZSPAN_M11,X2_M11,X0_M11,X1_M11
2022-05-25 19:00:00,,0825.5,4.99,0.00,28.6,27.6,00.0,37.5,30.4,13.9,0000.0,0002.56,0005.32,0002.02
2022-05-25 19:01:00,,0825.5,5.00,0.00,28.6,27.7,00.0,37.5,30.4,14.7,0000.0,0002.60,0005.85,0002.03
2022-05-25 19:02:00,,0825.5,5.00,0.00,28.6,27.7,00.0,37.5,30.5,14.9,0000.0,0002.64,0006.73,0002.04
2022-05-25 19:03:00,,0825.5,5.01,0.00,28.6,27.7,00.0,37.5,30.5,13.4,0000.0,0002.66,0006.95,0002.05
2022-05-25 19:04:00,,0825.5,5.00,0.00,28.6,27.7,00.0,37.5,30.5,13.5,0000.0,0002.64,0006.90,0002.04
2022-05-25 19:05:00,,0825.5,4.99,0.00,28.6,27.8,00.0,37.5,30.5,13.4,0000.0,0002.65,0006.45,0002.04
2022-05-25 19:06:00,,0825.5,4.99,0.00,28.7,27.8,00.0,37.5,30.5,12.8,0000.0,0002.61,0006.17,0002.03
2022-05-25 19:07:00,,0825.4,5.01,0.00,28.7,27.8,00.0,37.5,30.6,13.5,0000.0,0002.59,0005.38,0002.03
2022-05-25 19:08:00,,0825.5,5.00,0.00,28.7,27.9,00.0,37.5,30.6,13.3,0000.0,0002.56,0005.29,0002.02
2022-05-25 19:09:00,,0825.4,4.99,0.00,28.7,27.9,00.0,37.5,30.6,13.5,0000.0,0002.55,0005.80,0002.02
2022-05-25 19:10:00,,0825.4,5.00,0.00,28.7,27.9,00.0,37.6,30.6,13.2,0000.0,0002.57,0006.87,0002.02
2022-05-25 19:11:00,,0825.4,4.99,0.00,28.7,27.9,00.0,37.6,30.6,14.1,0000.0,0002.52,0006.72,0002.01
2022-05-25 19:12:00,,0825.4,5.00,0.00,28.8,27.9,00.0,37.6,30.7,13.4,0000.0,0002.46,0006.92,0002.01
2022-05-25 19:13:00,,0825.4,5.01,0.00,28.8,27.9,00.0,37.6,30.6,12.6,0000.0,0002.39,0006.46,0002.00
2022-05-25 19:14:00,,0825.4,5.00,0.00,28.8,27.9,00.0,37.6,30.6,12.7,0000.0,0002.36,0006.17,0002.01
2022-05-25 19:15:00,,0825.4,4.99,0.00,28.8,27.9,00.0,37.6,30.6,13.4,0000.0,0002.37,0006.21,0002.01
2022-05-25 19:16:00,,0825.3,5.00,0.00,28.8,27.9,00.0,37.6,30.7,13.3,0000.0,0002.37,0006.27,0002.00
2022-05-25 19:17:00,,0825.3,5.01,0.00,28.8,27.9,00.0,37.6,30.7,12.8,0000.0,0002.40,0006.37,0002.01
2022-05-25 19:18:00,,0825.3,5.00,0.00,28.8,27.9,00.0,37.6,30.7,13.4,0000.0,0002.40,0006.44,0002.02
2022-05-25 19:19:00,,0825.3,4.99,0.00,28.8,27.9,00.0,37.7,30.7,13.2,0000.0,0002.42,0006.47,0002.02
2022-05-25 19:20:00,,0825.3,4.99,0.00,28.8,27.9,00.0,37.7,30.7,13.3,0000.0,0002.44,0006.08,0002.03
2022-05-25 19:21:00,,0825.3,4.99,0.00,28.8,27.9,00.0,37.7,30.7,12.8,0000.0,0002.41,0004.80,0002.04
2022-05-25 19:22:00,,0825.4,5.01,0.00,28.8,27.9,00.0,37.7,30.7,12.9,0000.0,0002.42,0004.82,0002.04
2022-05-25 19:23:00,,0825.3,5.00,0.00,28.8,27.9,00.0,37.7,30.7,13.0,0000.0,0002.48,0004.31,0002.05
2022-05-25 19:24:00,,0825.3,5.00,0.00,28.8,27.9,00.0,37.7,30.7,14.1,0000.0,0002.49,0003.64,0002.04
2022-05-25 19:25:00,,0825.3,5.01,0.00,28.8,27.9,00.0,37.7,30.7,13.4,0000.0,0002.51,0003.69,0002.04
2022-05-25 19:26:00,,0825.2,5.00,0.00,28.8,27.9,00.0,37.7,30.7,13.4,0000.0,0002.48,0003.61,0002.03
2022-05-25 19:27:00,,0825.2,5.01,0.00,28.8,27.9,00.0,37.7,30.7,12.9,0000.0,0002.46,0003.56,0002.04
2022-05-25 19:28:00,,0825.2,5.01,0.00,28.8,27.9,00.0,37.7,30.7,13.7,0000.0,0002.43,0003.59,0002.03
2022-05-25 19:29:00,,0825.2,5.00,0.00,28.8,27.9,00.0,37.7,30.7,12.9,0000.0,0002.42,0003.49,0002.02
2022-05-25 19:30:00,,0825.2,5.00,0.00,28.8,27.9,00.0,37.7,30.7,13.1,0000.0,0002.42,0003.47,0002.02
2022-05-25 19:31:00,,0825.1,5.01,0.00,28.9,28.0,00.0,37.7,30.7,13.6,0000.0,0002.39,0003.38,0002.02
2022-05-25 19:32:00,,0825.2,5.00,0.00,28.8,27.9,00.0,37.7,30.7,12.8,0000.0,0002.41,0003.42,0002.02
2022-05-25 19:33:00,,0825.2,5.00,0.00,28.9,28.0,00.0,37.7,30.7,12.6,0000.0,0002.43,0003.49,0002.03
2022-05-25 19:34:00,,0825.2,4.99,0.00,28.9,27.9,00.0,37.7,30.7,12.6,0000.0,0002.37,0003.42,0002.02
2022-05-25 19:35:00,,0825.3,5.00,0.00,28.9,27.9,00.0,37.7,30.7,12.8,0000.0,0002.38,0003.44,0002.02
2022-05-25 19:36:00,,0825.2,5.01,0.00,28.9,27.9,00.0,37.8,30.7,13.6,0000.0,0002.36,0003.48,0001.99
2022-05-25 19:37:00,,0825.2,5.00,0.00,28.9,27.9,00.0,37.8,30.7,12.6,0000.0,0002.39,0003.68,0002.00
2022-05-25 19:38:00,,0825.2,5.00,0.00,28.9,28.0,00.0,37.8,30.7,13.2,0000.0,0002.42,0003.70,0002.00
2022-05-25 19:39:00,,0825.1,4.99,0.00,28.9,28.0,00.0,37.8,30.7,13.1,0000.0,0002.46,0003.69,0002.01
2022-05-25 19:40:00,,0825.2,5.00,0.00,28.9,28.0,00.0,37.8,30.8,13.1,0000.0,0002.46,0003.62,0002.03
2022-05-25 19:41:00,,0825.1,5.00,0.00,28.9,28.0,00.0,37.8,30.8,13.4,0000.0,0002.46,0003.63,0002.03
2022-05-25 19:42:00,,0825.1,5.01,0.00,28.9,28.0,00.0,37.8,30.8,13.8,0000.0,0002.48,0003.69,0002.03
2022-05-25 19:43:00,,0825.1,5.00,0.00,28.9,28.1,00.0,37.8,30.8,13.7,0000.0,0002.48,0004.54,0002.02
2022-05-25 19:44:00,,0825.1,5.00,0.00,29.0,28.1,00.0,37.8,30.8,13.7,0000.0,0002.45,0005.22,0002.01
2022-05-25 19:45:00,,0825.1,5.00,0.00,29.0,28.1,00.0,37.8,30.8,13.7,0000.0,0002.47,0005.27,0002.02
2022-05-25 19:46:00,,0825.1,5.00,0.00,29.0,28.1,00.0,37.8,30.8,13.3,0000.0,0002.47,0005.25,0002.02
2022-05-25 19:47:00,,0825.1,5.00,0.00,29.0,28.1,00.0,37.8,30.8,13.0,0000.0,0002.46,0005.71,0002.02
2022-05-25 19:48:00,,0825.1,5.00,0.00,29.0,28.1,00.0,37.9,30.8,13.6,0000.0,0002.49,0006.17,0002.03
2022-05-25 19:49:00,,0825.1,5.00,0.00,29.0,28.1,00.0,37.9,30.8,13.3,0000.0,0002.47,0006.17,0002.02
2022-05-25 19:50:00,,0825.1,5.00,0.00,29.0,28.1,00.0,37.9,30.8,12.7,0000.0,0002.43,0006.13,0002.02
2022-05-25 19:51:00,,0825.1,5.00,0.00,29.0,28.1,00.0,37.9,30.8,13.1,0000.0,0002.43,0006.16,0002.01
2022-05-25 19:52:00,,0825.1,5.00,0.00,29.0,28.1,00.0,37.9,30.8,12.8,0000.0,0002.42,0006.16,0002.00
2022-05-25 19:53:00,,0825.1,5.01,0.00,29.0,28.1,00.0,37.9,30.9,13.8,0000.0,0002.39,0006.92,0002.00
2022-05-25 19:54:00,,0825.1,4.99,0.00,29.0,28.1,00.0,37.9,30.9,13.1,0000.0,0002.41,0006.54,0002.00
2022-05-25 19:55:00,,0825.0,5.00,0.00,29.0,28.2,00.0,37.9,30.9,13.3,0000.0,0002.41,0005.83,0002.01
2022-05-25 19:56:00,,0825.1,5.01,0.00,29.1,28.2,00.0,37.9,30.9,13.5,0000.0,0002.38,0005.81,0002.00
2022-05-25 19:57:00,,0825.0,4.99,0.00,29.1,28.2,00.0,37.9,30.9,13.1,0000.0,0002.40,0005.90,0002.01
2022-05-25 19:58:00,,0825.0,5.00,0.00,29.1,28.2,00.0,37.9,30.9,12.9,0000.0,0002.41,0005.36,0002.03
2022-05-25 19:59:00,,0825.0,5.00,0.00,29.1,28.2,00.0,37.9,30.9,12.6,0000.0,0002.40,0004.76,0002.04
